Dillon, MT

9:34 PM MDT on March 27, 2017 (GMT -0600)
Dillon

Weather History for KDLN - September, 2013

Change the Weather History Date:

Tuesday, September 3, 2013

  Actual Average Record
Temperature  
Mean Temperature 68 °F 60 °F  
Max Temperature 83 °F 76 °F 95 °F (1950)
Min Temperature 53 °F 44 °F 30 °F (1958)
Degree Days  
Heating Degree Days 0    
Month to date heating degree days 1  
Since 1 July heating degree days 7  
Cooling Degree Days 3    
Month to date cooling degree days 7  
Year to date cooling degree days 235  
Growing Degree Days 17 (Base 50)    
Moisture  
Dew Point 52 °F    
Average Humidity 64    
Maximum Humidity 93    
Minimum Humidity 35    
Precipitation  
Precipitation 0.19 in 0.04 in 0.38 in (1940)
Month to date precipitation 0.19 0.10  
Year to date precipitation 7.13 8.40  
Snow  
Snow 0.00 in - - ()
Snow Depth 0.00 in    
Sea Level Pressure  
Sea Level Pressure 30.05 in    
Wind  
Wind Speed 5 mph (South)    
Max Wind Speed 21 mph    
Max Gust Speed 28 mph    
Visibility 10 miles    
Events Rain    
T = Trace of Precipitation, MM = Missing Value Source: NWS Daily Summary

Daily Weather History Graph

Daily Weather History Graph

Search for Another Location

Airport or City:

Trip Planner

Search our weather history database for the weather conditions in past years. The results will help you decide how hot, cold, wet, or windy it might be!

Date:

Astronomy

Sep. 03, 2013 Rise Set
Actual Time 6:54 AM MDT 8:03 PM MDT
Civil Twilight 6:24 AM MDT 8:33 PM MDT
Nautical Twilight 5:47 AM MDT 9:09 PM MDT
Astronomical Twilight 5:09 AM MDT 9:47 PM MDT
Moon 5:09 AM MDT (9/3) 6:53 PM MDT (9/3)
Length of Visible Light 14h 09m
Length of Day
13h 08m
Waning Crescent, 3% of the Moon is Illuminated
Sep 3
Waning Crescent
Sep 5
New
Sep 12
First Quarter
Sep 19
Full
Sep 26
Last Quarter

Hourly Weather History & Observations

Time (MDT) Temp. Dew Point Humidity Pressure Visibility Wind Dir Wind Speed Gust Speed Precip Events Conditions
12:53 AM 57.0 °F 48.0 °F 72% 29.98 in 10.0 mi SW 6.9 mph - N/A   Clear
1:53 AM 59.0 °F 48.0 °F 67% 29.99 in 10.0 mi South 8.1 mph - N/A   Clear
2:53 AM 59.0 °F 46.9 °F 64% 30.00 in 10.0 mi South 6.9 mph - N/A   Clear
3:53 AM 57.0 °F 48.0 °F 72% 30.02 in 10.0 mi SSW 6.9 mph - N/A   Clear
4:53 AM 60.1 °F 48.0 °F 64% 30.01 in 10.0 mi South 5.8 mph - N/A   Clear
5:53 AM 55.0 °F 48.9 °F 80% 30.03 in 10.0 mi Calm Calm - N/A   Clear
6:53 AM 53.1 °F 46.9 °F 80% 30.04 in 10.0 mi SE 6.9 mph - N/A   Clear
7:53 AM 57.0 °F 48.9 °F 74% 30.06 in 10.0 mi South 3.5 mph - N/A   Clear
8:53 AM 57.0 °F 51.1 °F 81% 30.09 in 10.0 mi Calm Calm - N/A   Clear
9:53 AM 63.0 °F 53.1 °F 70% 30.08 in 10.0 mi SW 3.5 mph - N/A   Overcast
10:53 AM 69.1 °F 51.1 °F 53% 30.06 in 10.0 mi Calm Calm - N/A   Overcast
11:53 AM 73.0 °F 51.1 °F 46% 30.07 in 10.0 mi Calm Calm - N/A   Scattered Clouds
2:53 PM 81.0 °F 50.0 °F 34% 29.96 in 10.0 mi Variable 3.5 mph - N/A   Clear
3:53 PM 80.1 °F 50.0 °F 35% 29.95 in 10.0 mi NNE 4.6 mph - N/A   Clear
4:53 PM 75.0 °F 54.0 °F 48% 29.96 in 10.0 mi WNW 4.6 mph - N/A   Overcast
5:53 PM 64.9 °F 54.0 °F 68% 30.06 in 8.0 mi SW 15.0 mph 24.2 mph 0.01 in Rain Light Rain
6:53 PM 62.1 °F 57.0 °F 84% 30.09 in 8.0 mi SSW 13.8 mph - 0.03 in Rain Light Rain
7:53 PM 61.0 °F 57.9 °F 90% 30.11 in 5.0 mi South 11.5 mph - 0.08 in Rain Light Rain
8:53 PM 61.0 °F 57.9 °F 90% 30.12 in 10.0 mi ESE 9.2 mph - 0.07 in Rain Light Rain
9:53 PM 59.0 °F 57.0 °F 93% 30.13 in 10.0 mi NNW 4.6 mph - 0.00 in   Overcast
10:53 PM 59.0 °F 57.0 °F 93% 30.13 in 10.0 mi Calm Calm - N/A   Overcast
11:53 PM 60.1 °F 57.9 °F 93% 30.11 in 10.0 mi SE 4.6 mph - N/A   Overcast